Regional Weather Roundup
Issued by NWS Jackson, KY

Home | Current Version | Previous Version | Text Only | Print | Product List | Glossary Off
Versions: 1 2 3 4 5 6 7 8 9 10 11 12 13 14 15 16 17 18 19 20 21 22 23 24 25 26 27 28 29 30 31 32 33 34 35 36 37 38 39 40 41 42 43 44 45 46 47 48 49 50

000
ASUS43 KJKL 311211
RWRJKL

EAST KENTUCKY HOURLY WEATHER ROUNDUP
NATIONAL WEATHER SERVICE JACKSON KY
700 AM EST SAT JAN 31 2015

NOTE: "FAIR" INDICATES FEW OR NO CLOUDS BELOW 12,000 FEET WITH
NO SIGNIFICANT WEATHER AND/OR OBSTRUCTIONS TO VISIBILITY.

* THESE REPORTS ARE NOT UNDER NWS QUALITY CONTROL AND MAY NOT
  REPORT WEATHER SUCH AS PRECIPITATION AND FOG.

KYZ079-080-083-085-087-088-110-112-115-119-120-311300
...EASTERN KENTUCKY...

CITY           SKY/WX    TMP DP  RH WIND       PRES   REMARKS
JACKSON        CLEAR     20  12  71 S3        30.35R
6HR MIN TEMP:  19; 6HR MAX TEMP:  23;

LONDON           N/A     19  13  77 CALM      30.36S
6HR MIN TEMP:  19; 6HR MAX TEMP:  23;

SOMERSET*      CLEAR     19  18  93 CALM      30.39S
MONTICELLO*    CLEAR     17  14  88 CALM      30.40S
6HR MIN TEMP:  14; 6HR MAX TEMP:  18;

MIDDLESBORO*   CLEAR     18  16  93 CALM      30.39S
6HR MIN TEMP:  18; 6HR MAX TEMP:  22;

HARLAN APT*    SUNNY     19  19 100 CALM      30.35S
HAZARD APT*    SUNNY     18  16  93 CALM      30.36
BLACK MTN*       N/A     18   1  49 CALM        N/A
PIKEVILLE APT* CLEAR     19  14  79 S5        30.34S WCI  13
BIG SANDY*     SUNNY     17  13  84 CALM      30.36S
6HR MIN TEMP:  17; 6HR MAX TEMP:  21;

MOREHEAD APT*  SUNNY     18  12  79 SE5       30.39S WCI  11
$$

KYZ035-036-041-042-044-050-067-078-099-311300
...CENTRAL KENTUCKY...

CITY           SKY/WX    TMP DP  RH WIND       PRES   REMARKS
MT STERLING*   CLEAR     16  14  93 S5        30.38S WCI   9
FLEMING/MASON* CLEAR     18  12  79 S5        30.38S WCI  11
DANVILLE*      PTCLDY    19  16  86 SW3       30.37S
RICHMOND*      PTCLDY    18  14  86 SE3       30.36S
LEXINGTON      CLEAR     19  13  77 SE7       30.36S WCI  10
6HR MIN TEMP:  18; 6HR MAX TEMP:  23;

FRANKFORT      PTCLDY    16  11  80 CALM      30.36S
6HR MIN TEMP:  15; 6HR MAX TEMP:  19;

$$

KYZ091>093-OHZ055-061-077-WVZ005-015-034-035-042-311300
...SOUTHERN OHIO/WEST VIRGINIA...

CITY           SKY/WX    TMP DP  RH WIND       PRES   REMARKS
COVINGTON      PTCLDY    19  12  74 S3        30.35S
COLUMBUS       PTCLDY    12   8  84 CALM      30.36F
DAYTON         CLEAR     19  13  77 S7        30.35R WCI  10
WILMINGTON     CLEAR     17  11  77 S5        30.35R WCI  10
HUNTINGTON     CLEAR     13  11  92 E3        30.39S
CHARLESTON     CLEAR     14  11  87 CALM      30.38S
PINEVILLE*     CLEAR     12  11  96 MISG      30.38S
BECKLEY        PTCLDY    11   6  81 W3        30.26S
BLUEFIELD      PTCLDY    14   8  77 W7        30.25R WCI   4
$$

VAZ002-007-008-TNZ017-027-036-066-071-311300
...SOUTHWEST VIRGINIA/EAST TENNESSEE...

CITY           SKY/WX    TMP DP  RH WIND       PRES   REMARKS
WISE*          CLEAR     19  12  73 CALM      30.28S
JONESVILLE*    SUNNY     16  14  93 CALM      30.38S
ABINGDON*      CLEAR     21  13  72 CALM      30.31S
BRISTOL        PTCLDY    17  13  84 CALM      30.36R
KNOXVILLE      PTCLDY    21  17  84 E5        30.36S WCI  15
OAK RIDGE      CLEAR     22  18  85 CALM      30.39S
CROSSVILLE     CLEAR     19  15  84 CALM      30.32R
NASHVILLE      PTCLDY    24  21  88 CALM      30.38S
$$

...KEY TO REMARKS...
VSB - VISIBILITY IN MILES
WCI - WIND CHILL INDEX
HX  - HEAT INDEX

$$


USA.gov is the U.S. government's official web portal to all federal, state and local government web resources and services.